Hourly Data Report for September 15, 2017

All times are specified in Local Standard Time (LST). Add 1 hour to adjust for Daylight Saving Time where and when it is observed.

GRAND MANAN SAR CS
NEW BRUNSWICK

44°42'43.400" N
66°48'06.900" W
78.20 m
8101925
71030
XGM

Download Data

Hourly Data (September 2017)
Hourly Data Report for September 15, 2017
Temp Definition
°C
Dew Point Temp Definition
°C
Rel Hum Definition
%
Wind Dir Definition
10's deg

Wind Spd Definition
km/h
Visibility Definition
km
Stn Press Definition
kPa
Hmdx Definition


Wind Chill Definition


Weather Definition


TIME
00:00 14.7 14.5 99 26 6   100.44     LegendNANA
01:00 14.4 14.3 99 23 3   100.48     LegendNANA
02:00 13.6 13.5 99 21 5   100.53     LegendNANA
03:00 12.6 12.5 99 22 2   100.54     LegendNANA
04:00 12.4 12.3 99 24 4   100.57     LegendNANA
05:00 12.0 11.9 100 35 4   100.67     LegendNANA
06:00 11.9 11.9 100 4 4   100.73     LegendNANA
07:00 12.2 12.1 100 6 6   100.80     LegendNANA
08:00 12.5 12.4 100 6 14   100.88     LegendNANA
09:00 13.9 13.9 100 8 8   100.98     LegendNANA
10:00 15.1 14.9 99 7 11   101.02     LegendNANA
11:00 14.8 14.6 99 7 13   101.10     LegendNANA
12:00 15.2 14.7 97 9 11   101.07     LegendNANA
13:00 14.5 13.7 95 7 13   101.09     LegendNANA
14:00 14.5 13.9 96 6 15   101.08     LegendNANA
15:00 15.0 14.4 96 9 10   101.08     LegendNANA
16:00 14.9 14.4 97 11 10   101.08     LegendNANA
17:00 15.0 14.7 98 10 4   101.10     LegendNANA
18:00 15.3 14.9 98 15 4   101.11     LegendNANA
19:00 14.9 14.6 98 17 6   101.12     LegendNANA
20:00 14.4 14.2 99 19 6   101.16     LegendNANA
21:00 14.8 14.6 99 22 3   101.15     LegendNANA
22:00 15.6 15.4 99 22 6   101.17     LegendNANA
23:00 16.0 15.9 99 23 5   101.18     LegendNANA

Notes on Data Quality.

Legend

  • E = Estimated
  • M = Missing
  • NA = Not Available
  • ‡ = Partner data that is not subject to review by the National Climate Archives
Date modified: